Regional Weather Roundup
Issued by NWS

Home | Current Version | Previous Version | Text Only | Print | Product List | Glossary On
Versions: 1 2 3 4 5 6 7 8 9 10 11 12 13 14 15 16 17 18 19 20 21 22 23 24 25 26 27 28 29 30 31 32 33 34 35 36 37 38 39 40 41 42 43 44 45 46 47 48 49 50
000
ASUS44 KFWD 271415
RWRTX
NORTH TEXAS HOURLY WEATHER ROUNDUP
NATIONAL WEATHER SERVICE FORT WORTH TX
900 AM CDT TUE SEP 27 2016

NOTE: "FAIR" INDICATES FEW OR NO CLOUDS BELOW 12,000 FEET WITH NO
SIGNIFICANT WEATHER AND/OR OBSTRUCTIONS TO VISIBILITY.

TXZ118-119-271500-
DALLAS/FORT WORTH METROPLEX

CITY           SKY/WX    TMP DP  RH WIND       PRES   REMARKS
DFW AIRPORT    PTSUNNY   68  54  60 N7        30.12S
DALLAS LOVE    PTSUNNY   68  53  58 N5        30.12S
FTW MEACHAM    MOSUNNY   67  49  52 N8        30.13S
DAL-EXECUTIVE  MOSUNNY   66  57  72 NW6       30.12R
FTW-ALLIANCE   PTSUNNY   64  50  60 N5        30.14S
FTW-NAS-JRB    PTSUNNY   66  52  60 NW7       30.14F
FTW-SPINKS     SUNNY     64  52  63 N8        30.15R
ARLINGTON      MOSUNNY   67  55  65 NW8       30.13S
GRAND PRAIRIE  SUNNY     68  54  60 N6        30.15R
ADDISON        PTSUNNY   66  52  59 N6        30.13S
MESQUITE       CLOUDY    66  55  68 NW6       30.12R
LANCASTER      CLOUDY    68  55  63 N7        30.13R
$$

TXZ091>094-102>105-117-120-121-131>134-271500-
NORTH CENTRAL TEXAS

CITY           SKY/WX    TMP DP  RH WIND       PRES   REMARKS
SHRMAN/DENISON CLOUDY    58  57  97 CALM      30.14F
GAINESVILLE      N/A     57  49  74 CALM      30.17R
BOWIE          CLOUDY    61  51  70 NW3       30.16S
BRIDGEPORT     CLOUDY    61  58  90 CALM      30.18R
DECATUR        MOSUNNY   62  48  60 CALM      30.16R
DENTON         MOSUNNY   63  50  62 N8        30.14R
MCKINNEY       MOSUNNY   62  53  72 N6        30.13S
GREENVILLE     MOSUNNY   64  52  63 N3        30.12S
ROCKWALL       PTSUNNY   63  52  68 MISG      30.12S
TERRELL        CLOUDY    67  55  65 N9        30.12R
WAXAHACHIE     CLOUDY    66  58  76 NW5       30.14R
CLEBURNE       MOSUNNY   64  57  77 NW7       30.15S
GRANBURY       LGT RAIN  63  55  76 NW7       30.16S
$$

TXZ083>090-098>101-113>116-127>130-139>142-154-155-271500-
WESTERN NORTH TEXAS

CITY           SKY/WX    TMP DP  RH WIND       PRES   REMARKS
WICHITA FALLS  PTSUNNY   56  51  84 NW8       30.17R
WF-KICKAPOO    CLOUDY    59  51  74 W3        30.19R
VERNON         CLOUDY    56  47  73 NW5       30.19S
ABILENE        CLOUDY    60  52  74 NW5       30.20S
ABILENE-DYESS  CLOUDY    60  51  71 N5        30.18F
CISCO          CLOUDY    61  52  72 NW6       30.20R
BRECKENRIDGE     N/A     61  53  74 MISG      30.18S
GRAHAM         CLOUDY    60  53  78 CALM      30.16S
MINERAL WELLS  PTSUNNY   63  51  65 NW5       30.15R
STEPHENVILLE   CLOUDY    62  54  75 NW3       30.18R
COMANCHE       PTSUNNY   62  55  80 NW6       30.17S
BROWNWOOD      CLOUDY    63  54  72 NW6       30.18R
COLEMAN        CLOUDY    62  53  72 N5        30.19R
$$

TXZ143>147-156>162-174-175-271500-
CENTRAL TEXAS

CITY           SKY/WX    TMP DP  RH WIND       PRES   REMARKS
WACO           CLOUDY    69  62  78 N9        30.11R
WACO-TSTC      CLOUDY    68  59  73 N8        30.12R
WACO-MCGREGOR  CLOUDY    67  61  81 N8        30.12R
HILLSBORO      CLOUDY    66  61  84 N6        30.12S
CORSICANA      CLOUDY    69  61  75 N7        30.12R
MEXIA          CLOUDY    66  60  81 N3        30.10S
HEARNE         CLOUDY    68  64  85 N7        30.10R
CAMERON        CLOUDY    69  64  82 N8        30.10R
TEMPLE         CLOUDY    68  61  78 N12       30.12R
KILLEEN        CLOUDY    67  60  79 N10       30.12R
KILLEEN-SKYLRK CLOUDY    67  60  78 N9        30.12R
FORT HOOD      CLOUDY    66  59  78 N8        30.10R
GATESVILLE     CLOUDY    66  61  82 N7        30.15R
HAMILTON       CLOUDY    65  61  85 N6        30.16R
LAMPASAS       CLOUDY    67  63  86 N5        30.13S
$$

TXZ095>097-106>112-122>126-135>138-148>153-164>167-271500-
EAST TEXAS

CITY           SKY/WX    TMP DP  RH WIND       PRES   REMARKS
PARIS          CLOUDY    61  54  77 N5        30.12S
SULPHUR SPRNGS MOSUNNY   67  56  67 NE3       30.14R
MOUNT PLEASANT PTSUNNY   69  58  69 N5        30.12S
GILMER         CLOUDY    66  58  75 N3        30.10S
MINEOLA        CLOUDY    68  61  77 N5        30.10S
TYLER          CLOUDY    68  60  75 N8        30.09S
LONGVIEW       MOSUNNY   70  57  63 NE7       30.09R
MARSHALL       CLOUDY    70  58  66 N3        30.10S
ATHENS         MOSUNNY   68  59  73 NE7       30.09S
PALESTINE      SUNNY     67  62  84 N3        30.10R
JACKSONVILLE   MOSUNNY   67  60  77 NE8       30.11R
HENDERSON      CLOUDY    66  56  71 N5        30.10S
CENTER         CLOUDY    69  60  72 N7        30.08S
NACOGDOCHES    SUNNY     68  57  68 N5        30.06R
LUFKIN         CLOUDY    69  59  70 N8        30.06R
$$

SUPPLEMENTAL OBSERVATIONS (CENTRAL)

CITY           SKY/WX    TMP DP  RH WIND       PRES   REMARKS
DENISON DAM      N/A     64  48  55 N2          N/A
CADDO GRASSLND   N/A     55  52  88 NW1         N/A
PAT MAYSE LAKE   N/A     57  54  88 NW1         N/A
GREENVILLE       N/A     66  54  63 N5          N/A
CEDAR HILL       N/A     66  50  55 NE5         N/A
ATHENS           N/A     72  61  68 N3          N/A
LAKE LIMESTONE   N/A     70  63  78 N8          N/A
MCGREGOR         N/A     68  63  83 N6          N/A
TEMPLE           N/A    N/A N/A N/A N1          N/A
$$

SUPPLEMENTAL OBSERVATIONS (WEST)

CITY           SKY/WX    TMP DP  RH WIND       PRES   REMARKS
POSSUM KINGDOM   N/A     61  54  77 NW2         N/A
LBJ GRASSLAND    N/A     61  54  77 W2          N/A
GRANBURY         N/A     63  55  77 NW8         N/A
COMANCHE         N/A     63  54  72 NW8         N/A
HAMBY            N/A     61  54  77 N2          N/A
IVIE RESERVOIR   N/A     64  50  59 NW5         N/A
COLORADO BEND    N/A     64  57  77 NE5         N/A
$$

SUPPLEMENTAL OBSERVATIONS (EAST)

CITY           SKY/WX    TMP DP  RH WIND       PRES   REMARKS
CLARKSVILLE      N/A     66  57  72 E2          N/A
TEXARKANA        N/A     68  57  68 N5          N/A
LINDEN           N/A     66  59  77 CALM        N/A
CADDO LAKE       N/A     66  59  77 N1          N/A
GILMER           N/A     66  57  72 NE5         N/A
HENDERSON        N/A     66  57  72 N5          N/A
LUFKIN           N/A     68  59  73 MISG        N/A
N SABINE NF      N/A     64  63  94 MISG        N/A
S SABINE NF      N/A     70  57  64 N5          N/A
$$

SUPPLEMENTAL OBSERVATIONS ARE A COLLECTION OF AUTOMATED INSTRUMENTS
THAT ARE MAINTAINED BY A VARIETY OF FEDERAL AND STATE AGENCIES.
CERTAIN ELEMENTS...SUCH AS HUMIDITY VALUES AND SUSTAINED WIND
SPEEDS...MAY BE APPROXIMATED.





USA.gov is the U.S. government's official web portal to all federal, state and local government web resources and services.